   P06 � Terminal do Siqueira - Av. General Os�rio de Paiva, 2955, Vila Peri, Fortaleza-CE, 60730-085;;;;;;;;;;;;;;;
M�S  ;�xido de Enxofre;�xido N�trico;Di�xido de Nitrog�nio;�xidos de Nitrog�nio;Oz�nio;Material Particulado <10�m;Material Particulado <2,5�m;Mon�xido de carbono;VelVento (m/s);DirVento (�);T-PM10 (�C);UR (%);Press (mbar);RadSol (W/m�);Chuva
fev/23;SO2 (�g/m�);NO (�g/m�);NO2 (�g/m�);NOx (�g/m�);O3 (�g/m�);MP10 (�g/m�);MP2,5 (�g/m�);CO (ppm);;;;;;;
01/03/2023 00:00;;;;;;;;;;;;;;;
01/03/2023 01:00;;;;;;;;;;;;;;;
01/03/2023 02:00;;;;;;;;;;;;;;;
01/03/2023 03:00;;;;;;;;;;;;;;;
01/03/2023 04:00;;;;;;;;;;;;;;;
01/03/2023 05:00;;;;;;;;;;;;;;;
01/03/2023 06:00;;;;;;;;;;;;;;;
01/03/2023 07:00;;;;;;;;;;;;;;;
01/03/2023 08:00;;;;;;;;;;;;;;;
01/03/2023 09:00;;;;;;;;;;;;;;;
01/03/2023 10:00;;;;;;;;;;;;;;;
01/03/2023 11:00;;;;;;;;;;;;;;;
01/03/2023 12:00;;;;;;;;;;;;;;;
01/03/2023 13:00;;;;;;;;;;;;;;;
01/03/2023 14:00;;;;;;;;;;;;;;;
01/03/2023 15:00;;;;;;;;;;;;;;;
01/03/2023 16:00;;;;;;;;;;;;;;;
01/03/2023 17:00;;;;;;;;;;;;;;;
01/03/2023 18:00;;;;;;;;;;;;;;;
01/03/2023 19:00;;;;;;;;;;;;;;;
01/03/2023 20:00;;;;;;;;;;;;;;;
01/03/2023 21:00;;;;;;;;;;;;;;;
01/03/2023 22:00;;;;;;;;;;;;;;;
01/03/2023 23:00;;;;;;;;;;;;;;;
02/03/2023 00:00;;;;;;;;;;;;;;;
02/03/2023 01:00;;;;;;;;;;;;;;;
02/03/2023 02:00;;;;;;;;;;;;;;;
02/03/2023 03:00;;;;;;;;;;;;;;;
02/03/2023 04:00;;;;;;;;;;;;;;;
02/03/2023 05:00;;;;;;;;;;;;;;;
02/03/2023 06:00;;;;;;;;;;;;;;;
02/03/2023 07:00;;;;;;;;;;;;;;;
02/03/2023 08:00;;;;;;;;;;;;;;;
02/03/2023 09:00;;;;;;;;;;;;;;;
02/03/2023 10:00;;;;;;;;;;;;;;;
02/03/2023 11:00;;;;;;;;;;;;;;;
02/03/2023 12:00;;;;;;;;;;;;;;;
02/03/2023 13:00;;;;;;;;;;;;;;;
02/03/2023 14:00;;;;;;;;;;;;;;;
02/03/2023 15:00;;;;;;;;;;;;;;;
02/03/2023 16:00;;;;;;;;;;;;;;;
02/03/2023 17:00;;;;;;;;;;;;;;;
02/03/2023 18:00;;;;;;;;;;;;;;;
02/03/2023 19:00;;;;;;;;;;;;;;;
02/03/2023 20:00;;;;;;;;;;;;;;;
02/03/2023 21:00;;;;;;;;;;;;;;;
02/03/2023 22:00;;;;;;;;;;;;;;;
02/03/2023 23:00;;;;;;;;;;;;;;;
03/03/2023 00:00;;;;;;;;;;;;;;;
03/03/2023 01:00;;;;;;;;;;;;;;;
03/03/2023 02:00;;;;;;;;;;;;;;;
03/03/2023 03:00;;;;;;;;;;;;;;;
03/03/2023 04:00;;;;;;;;;;;;;;;
03/03/2023 05:00;;;;;;;;;;;;;;;
03/03/2023 06:00;;;;;;;;;;;;;;;
03/03/2023 07:00;;;;;;;;;;;;;;;
03/03/2023 08:00;;;;;;;;;;;;;;;
03/03/2023 09:00;;;;;;;;;;;;;;;
03/03/2023 10:00;;;;;;;;;;;;;;;
03/03/2023 11:00;;;;;;;;;;;;;;;
03/03/2023 12:00;;;;;;;;;;;;;;;
03/03/2023 13:00;;;;;;;;;;;;;;;
03/03/2023 14:00;;;;;;;;;;;;;;;
03/03/2023 15:00;;;;;;;;;;;;;;;
03/03/2023 16:00;;;;;;;;;;;;;;;
03/03/2023 17:00;;;;;;;;;;;;;;;
03/03/2023 18:00;;;;;;;;;;;;;;;
03/03/2023 19:00;;;;;;;;;;;;;;;
03/03/2023 20:00;;;;;5;32;18;0,9;0,95;333,22;24,90;99,20;1023,50;0,00;0,80
03/03/2023 21:00;1;;;;9;32;18;1,3;0,42;341,57;25,10;99,20;1022,00;0,00;0,30
03/03/2023 22:00;1;;;;2;30;14;1,4;0,38;347,45;25,10;99,40;1022,20;0,00;0,00
03/03/2023 23:00;1;;;;3;34;20;1,5;0,23;353,71;25,20;99,80;1021,90;0,00;1,40
04/03/2023 00:00;1;;;;3;26;16;1,2;0,29;350,43;25,10;100,00;1018,90;0,00;0,00
04/03/2023 01:00;5;;;;4;25;10;0,9;0,34;356,19;25,10;100,00;1019,30;0,00;0,00
04/03/2023 02:00;8;1;19;20;8;28;12;0,7;0,64;357,55;25,20;100,00;1016,50;0,00;0,30
04/03/2023 03:00;7;2;13;15;10;20;9;0,7;0,53;358,07;25,10;100,00;1012,30;0,00;0,00
04/03/2023 04:00;7;1;10;11;12;17;7;0,6;0,29;356,18;25,00;100,00;1015,70;0,00;0,00
04/03/2023 05:00;8;7;16;27;7;22;16;0,7;0,95;354,92;24,90;100,00;1011,30;0,00;0,30
04/03/2023 06:00;8;;;;6;31;14;0,7;1,33;356,16;25,00;100,00;1007,00;4,00;0,00
04/03/2023 07:00;9;30;21;68;7;29;20;0,8;1,50;356,50;25,40;98,60;1008,40;61,00;0,00
04/03/2023 08:00;10;;;;12;38;15;0,9;2,58;357,98;27,00;91,50;1005,90;25,00;0,00
04/03/2023 09:00;9;;;;17;36;17;0,8;3,42;355,45;28,30;83,80;1006,30;54,00;0,00
04/03/2023 10:00;8;10;13;29;23;36;18;0,7;3,42;355,25;29,40;78,50;1006,30;126,00;0,00
04/03/2023 11:00;5;6;7;16;30;36;16;0,7;4,32;356,13;30,40;70,30;1005,70;282,00;0,00
04/03/2023 12:00;6;;;;33;31;16;0,6;5,29;357,83;31,30;61,30;1005,40;352,00;0,00
04/03/2023 13:00;10;3;6;11;34;24;13;0,6;4,77;358,37;31,90;58,60;1004,60;335,00;0,00
04/03/2023 14:00;10;3;7;13;33;23;9;0,7;4,67;356,18;32,20;54,80;1003,70;274,00;0,00
04/03/2023 15:00;10;3;7;12;33;26;14;0,6;4,37;359,80;31,80;57,30;1003,40;150,00;0,00
04/03/2023 16:00;11;2;8;11;35;25;9;0,7;4,20;1,23;31,10;64,40;1003,30;93,00;0,00
04/03/2023 17:00;11;7;12;23;29;32;8;0,7;2,89;358,85;30,40;67,50;1003,80;1,00;0,00
04/03/2023 18:00;12;7;12;23;27;43;13;0,8;2,01;2,36;29,20;74,60;1004,40;0,00;0,00
04/03/2023 19:00;12;15;19;42;20;36;16;0,9;2,02;2,87;28,80;79,90;1004,90;0,00;0,00
04/03/2023 20:00;11;7;16;27;19;48;19;0,9;1,65;3,24;28,40;83,40;1005,50;0,00;0,00
04/03/2023 21:00;7;7;15;26;16;45;19;0,9;1,74;3,53;28,20;83,20;1005,80;0,00;0,00
04/03/2023 22:00;7;23;21;56;8;47;15;0,9;1,48;4,64;28,00;85,70;1006,20;0,00;0,00
04/03/2023 23:00;8;14;22;44;6;52;23;1,0;0,73;3,93;27,70;88,40;1009,00;0,00;0,00
05/03/2023 00:00;7;4;14;20;14;42;17;0,9;1,12;1,86;27,80;89,00;1009,80;0,00;0,00
05/03/2023 01:00;8;2;7;10;23;35;13;0,6;2,17;1,84;27,90;87,60;1007,70;0,00;0,00
05/03/2023 02:00;8;1;4;5;28;34;15;0,5;2,06;3,56;27,90;87,80;1006,30;0,00;0,00
05/03/2023 03:00;9;0;3;4;29;41;12;0,4;2,05;3,91;27,70;86,20;1005,50;0,00;0,00
05/03/2023 04:00;8;0;3;4;29;40;15;0,4;1,87;4,01;27,50;87,00;1005,50;0,00;0,00
05/03/2023 05:00;8;1;5;7;27;40;19;0,4;1,96;3,99;27,30;88,90;1006,20;0,00;0,60
05/03/2023 06:00;8;11;12;28;26;31;20;0,5;1,39;3,61;26,80;95,30;1006,30;0,00;0,30
05/03/2023 07:00;8;4;7;13;29;37;14;0,5;2,18;3,70;27,10;93,20;1006,60;0,00;0,00
05/03/2023 08:00;8;30;13;60;31;36;21;0,6;3,77;3,85;28,20;82,60;1007,10;5,00;0,00
05/03/2023 09:00;8;7;9;19;35;33;11;0,6;3,19;5,01;27,40;83,70;1007,20;92,00;0,00
05/03/2023 10:00;7;7;8;18;35;32;15;0,6;2,79;4,07;29,10;80,20;1007,40;96,00;0,00
05/03/2023 11:00;7;4;7;13;39;38;20;0,6;4,49;3,77;31,00;67,20;1007,70;261,00;0,00
05/03/2023 12:00;6;5;7;14;39;30;15;0,6;3,99;4,74;31,80;61,90;1006,20;241,00;0,00
05/03/2023 13:00;6;3;6;10;43;34;10;0,5;3,72;4,92;32,60;58,20;1006,00;268,00;0,00
05/03/2023 14:00;6;3;5;9;43;40;15;0,5;3,44;5,14;32,90;58,30;1004,80;187,00;0,00
05/03/2023 15:00;6;4;5;11;39;35;14;0,5;4,41;5,41;32,30;60,20;1005,60;152,00;0,00
05/03/2023 16:00;6;2;5;8;38;31;9;0,5;4,55;5,61;31,30;65,10;1004,90;65,00;0,00
05/03/2023 17:00;6;4;6;12;34;37;13;0,5;3,80;5,71;30,20;72,00;1005,50;1,00;0,00
05/03/2023 18:00;5;8;9;21;32;35;11;0,5;3,11;5,76;29,10;78,20;1005,90;0,00;0,00
05/03/2023 19:00;4;4;11;17;31;43;17;0,6;2,72;5,79;28,80;80,20;1008,10;0,00;0,00
05/03/2023 20:00;4;5;11;18;31;40;17;0,5;2,49;5,88;28,60;81,70;1010,20;0,00;0,00
05/03/2023 21:00;3;12;11;30;29;36;16;0,5;2,85;5,82;28,40;85,00;1009,20;0,00;0,00
05/03/2023 22:00;3;4;9;15;33;40;14;0,5;2,50;5,83;27,90;88,40;1008,50;0,00;0,00
05/03/2023 23:00;3;2;8;12;32;37;17;0,5;2,27;5,84;27,90;87,90;1008,30;0,00;0,00
06/03/2023 00:00;2;5;7;14;32;35;12;0,5;2,19;5,89;27,50;89,50;1007,00;0,00;0,00
06/03/2023 01:00;9;1;6;8;32;30;17;0,4;1,91;5,79;27,50;88,80;1005,80;0,00;0,00
06/03/2023 02:00;12;0;4;5;34;33;14;0,4;1,47;5,80;27,50;88,50;1004,40;0,00;0,00
06/03/2023 03:00;13;0;3;4;34;35;14;0,4;1,38;5,87;27,50;89,00;1004,10;0,00;0,00
06/03/2023 04:00;13;0;3;3;33;38;12;0,4;1,64;5,72;27,30;90,80;1003,80;0,00;0,30
06/03/2023 05:00;13;9;13;27;21;40;17;0,5;1,13;5,90;26,80;93,80;1004,90;0,00;0,00
06/03/2023 06:00;14;54;26;109;7;44;17;0,6;0,97;5,90;26,60;94,00;1005,00;0,00;0,00
06/03/2023 07:00;14;44;22;89;7;73;22;0,7;1,77;5,91;26,90;92,30;1006,20;0,00;0,00
06/03/2023 08:00;13;19;17;45;17;60;23;0,8;2,97;5,95;28,20;85,40;1007,50;6,00;0,00
06/03/2023 09:00;12;17;17;44;23;49;24;0,7;3,43;5,86;29,00;80,80;1014,60;34,00;0,00
06/03/2023 10:00;12;6;8;17;39;48;15;0,6;4,71;5,83;30,70;67,50;1021,40;183,00;0,00
06/03/2023 11:00;12;5;7;14;45;38;21;0,5;5,20;5,80;31,50;61,80;1019,90;279,00;0,00
06/03/2023 12:00;10;5;7;15;45;41;16;0,5;4,72;5,90;31,90;61,10;1020,60;193,00;0,00
06/03/2023 13:00;11;3;6;11;48;42;15;0,5;4,62;5,76;32,20;58,90;1019,00;271,00;0,00
06/03/2023 14:00;10;3;6;11;45;38;20;0,5;4,59;5,79;32,50;57,70;1018,60;282,00;0,00
06/03/2023 15:00;10;3;7;11;44;42;16;0,5;4,72;5,91;32,20;58,70;1013,50;152,00;0,00
06/03/2023 16:00;9;7;10;20;40;42;20;0,5;4,34;6,00;30,90;68,40;1006,30;39,00;0,00
06/03/2023 17:00;10;9;11;26;36;39;19;0,5;3,25;6,00;29,30;77,50;1005,90;0,00;0,00
06/03/2023 18:00;12;11;13;29;34;48;17;0,5;3,38;6,07;29,00;76,60;1007,50;0,00;0,00
06/03/2023 19:00;10;9;16;29;30;52;22;0,6;2,91;6,06;28,70;79,90;1006,10;0,00;0,00
06/03/2023 20:00;9;8;13;25;39;45;21;0,5;3,67;6,13;28,60;79,60;1005,80;0,00;0,00
06/03/2023 21:00;10;5;11;19;38;42;21;0,5;3,31;6,04;28,40;80,90;1005,20;0,00;0,00
06/03/2023 22:00;10;4;7;13;40;44;15;0,5;3,64;6,12;28,20;80,40;1005,70;0,00;0,00
06/03/2023 23:00;10;3;6;10;40;45;19;0,5;3,61;6,06;28,00;79,90;1006,00;0,00;0,00
07/03/2023 00:00;10;2;5;8;42;46;18;0,4;2,94;6,05;27,80;77,50;1007,10;0,00;0,00
07/03/2023 01:00;11;1;6;8;40;39;17;0,4;2,18;6,16;27,50;77,80;1007,60;0,00;0,00
07/03/2023 02:00;12;0;5;6;35;45;17;0,4;1,31;6,11;26,90;82,10;1007,30;0,00;0,00
07/03/2023 03:00;11;0;5;6;37;38;7;0,4;2,23;6,11;27,00;82,50;1006,70;0,00;0,00
07/03/2023 04:00;12;0;3;4;41;38;17;0,4;2,48;6,06;27,30;80,40;1007,20;0,00;0,00
07/03/2023 05:00;13;2;8;12;32;42;13;0,4;2,23;6,06;26,90;81,90;1010,90;0,00;0,00
07/03/2023 06:00;11;30;21;68;15;56;19;0,5;2,10;6,09;26,40;85,50;1014,70;0,00;0,00
07/03/2023 07:00;12;31;19;67;13;51;18;0,6;2,43;6,11;26,00;90,10;1016,00;0,00;0,00
07/03/2023 08:00;13;27;18;60;14;53;19;0,9;2,45;6,02;26,40;88,70;1020,40;6,00;0,00
07/03/2023 09:00;12;17;18;44;18;32;17;0,7;2,92;5,96;26,30;91,50;1017,10;45,00;0,80
07/03/2023 10:00;12;10;12;27;34;27;13;0,6;3,86;5,72;28,00;82,20;1013,90;169,00;0,60
07/03/2023 11:00;12;5;8;15;42;45;13;0,5;5,44;5,81;30,40;67,40;1009,20;270,00;0,00
07/03/2023 12:00;10;4;7;13;44;36;17;0,5;5,53;5,78;31,40;58,60;1008,70;363,00;0,00
07/03/2023 13:00;10;3;6;10;44;33;8;0,5;5,39;5,81;32,00;56,10;1008,00;335,00;0,00
07/03/2023 14:00;11;4;7;12;44;34;11;0,4;5,76;5,85;32,10;55,50;1006,70;268,00;0,00
07/03/2023 15:00;10;4;7;12;40;32;12;0,4;5,26;5,87;32,00;53,90;1006,20;194,00;0,00
07/03/2023 16:00;10;6; ;23;41;36;12;0,4;4,77;5,95;31,50;59,50;1004,70;66,00;0,00
07/03/2023 17:00;11;8;10;22;37;37;12;0,5;4,35;5,99;30,60;66,60;1004,40;0,00;0,00
07/03/2023 18:00;11;9;13;27;31;38;15;0,6;3,44;6,08;29,60;71,30;1004,30;0,00;0,00
07/03/2023 19:00;11;9;15;29;24;45;20;0,7;2,55;6,07;28,90;76,40;1004,80;0,00;0,00
07/03/2023 20:00;10;12;16;35;21;41;8;0,6;2,01;6,09;28,60;79,30;1005,20;0,00;0,00
07/03/2023 21:00;11;16;18;43;21;40;14;0,6;1,71;6,09;28,30;80,20;1005,80;0,00;0,00
07/03/2023 22:00;11;7;13;24;23;42;17;0,6;1,50;6,05;28,30;80,90;1006,20;0,00;0,00
07/03/2023 23:00;11;8;6;17;29;46;15;0,5;2,14;6,10;28,30;80,60;1006,30;0,00;0,00
08/03/2023 00:00;10;3;8;12;30;38;11;0,5;1,91;6,09;28,20;80,80;1005,60;0,00;0,00
08/03/2023 01:00;12;1;4;6;36;34;11;0,4;2,36;6,08;28,10;79,20;1005,40;0,00;0,00
08/03/2023 02:00;14;0;3;4;38;42;13;0,4;2,35;6,13;27,90;79,30;1004,50;0,00;0,00
08/03/2023 03:00;14;1;3;4;36;38;16;0,4;1,90;6,06;27,50;80,70;1004,00;0,00;0,00
08/03/2023 04:00;15;1;8;9;28;44;16;0,4;1,54;6,04;26,80;83,30;1003,90;0,00;0,00
08/03/2023 05:00;14;9;14;28;19;43;18;0,5;1,70;6,05;26,20;86,20;1003,90;0,00;0,00
08/03/2023 06:00;15;29;18;63;13;46;19;0,5;2,11;6,04;26,10;86,60;1004,40;0,00;0,00
08/03/2023 07:00;16;23;17;53;17;48;20;0,5;3,03;6,00;26,50;82,80;1004,70;0,00;0,00
08/03/2023 08:00;15;20;13;43;26;49;14;0,6;4,23;5,96;27,60;75,00;1005,60;29,00;0,00
08/03/2023 09:00;15;17;13;40;34;43;10;0,5;4,98;5,93;28,80;68,60;1005,90;131,00;0,00
08/03/2023 10:00;14;10;12;27;40;41;13;0,5;5,19;5,88;29,90;63,50;1005,80;177,00;0,00
08/03/2023 11:00;15;8;9;22;46;36;14;0,5;5,27;5,95;30,70;60,20;1005,30;133,00;0,00
08/03/2023 12:00;15;3;8;13;50;37;11;0,4;5,15;5,83;32,00;53,70;1004,60;257,00;0,00
08/03/2023 13:00;15;5;8;15;50;26;8;0,4;5,00;5,84;33,00;50,40;1003,50;293,00;0,00
08/03/2023 14:00;14;3;7;12;44;22;6;0,4;4,68;5,83;33,20;50,70;1002,60;256,00;0,00
08/03/2023 15:00;14;3;7;12;43;25;7;0,4;5,16;5,89;33,00;50,70;1002,20;189,00;0,00
08/03/2023 16:00;15;6;10;19;46;22;16;0,4;4,68;5,97;31,90;57,40;1002,40;63,00;0,00
08/03/2023 17:00;15;9;11;25;43;34;12;0,5;3,73;6,03;31,20;61,00;1002,50;0,00;0,00
08/03/2023 18:00;16;12;18;37;38;31;17;0,6;3,52;6,12;29,90;69,10;1003,20;0,00;0,00
08/03/2023 19:00;16;19;18;46;32;41;15;0,6;2,81;6,11;29,10;75,60;1004,30;0,00;0,00
08/03/2023 20:00;16;21;14;47;31;35;11;0,6;2,69;6,14;28,90;77,30;1004,90;0,00;0,00
08/03/2023 21:00;15;12;16;34;31;31;12;0,6;2,30;6,11;28,80;79,20;1005,80;0,00;0,00
08/03/2023 22:00;14;3;9;13;34;28;11;0,5;2,84;6,06;28,70;80,80;1006,40;0,00;0,00
08/03/2023 23:00;14;3;7;12;39;36;13;0,4;3,97;6,07;28,60;80,00;1007,00;0,00;0,00
09/03/2023 00:00;14;2;6;9;39;27;15;0,4;3,63;6,06;28,00;81,10;1006,90;0,00;0,00
09/03/2023 01:00;13;2;5;7;37;25;9;0,4;2,83;6,12;27,60;81,20;1006,60;0,00;0,00
09/03/2023 02:00;11;0;6;6;32;22;14;0,4;1,88;6,11;26,90;84,90;1006,70;0,00;0,00
09/03/2023 03:00;11;1;7;8;28;27;12;0,5;1,70;6,04;26,60;85,70;1007,30;0,00;0,00
09/03/2023 04:00;11;1;6;7;27;26;14;0,4;1,50;6,11;26,50;86,40;1006,40;0,00;0,00
09/03/2023 05:00;11;5;12;19;23;29;13;0,5;1,72;6,06;26,40;87,80;1006,10;0,00;0,00
09/03/2023 06:00;12;28;20;63;14;38;15;0,5;2,06;6,11;26,50;87,50;1006,70;0,00;0,00
09/03/2023 07:00;13;49;22;98;13;48;14;0,6;2,22;6,08;26,70;86,60;1009,40;0,00;0,00
09/03/2023 08:00;13;22;12;46;21;37;19;0,7;3,73;5,99;26,90;82,70;1010,40;21,00;0,00
09/03/2023 09:00;12;14;12;33;33;40;10;0,5;4,11;5,94;28,80;75,00;1010,90;101,00;0,00
09/03/2023 10:00;12;8;11;24;42;30;10;0,5;4,39;5,95;29,80;70,10;1010,90;107,00;0,30
09/03/2023 11:00;12;8;11;24;42;33;11;0,6;4,19;5,91;29,80;73,00;1011,20;186,00;0,00
09/03/2023 12:00;13;4;6;13;46;35;12;0,5;5,16;5,84;31,60;61,90;1010,30;251,00;0,00
09/03/2023 13:00;12;3;6;11;47;31;12;0,5;4,85;5,95;31,30;63,20;1009,00;135,00;0,00
09/03/2023 14:00;13;4;6;11;48;29;10;0,5;4,57;5,95;31,00;64,80;1008,10;83,00;0,00
09/03/2023 15:00;13;5;7;15;47;36;12;0,5;3,86;5,98;30,50;67,20;1007,30;17,00;0,00
09/03/2023 16:00;13;13;10;30;43;30;12;0,5;4,18;6,03;29,90;69,80;1008,00;2,00;0,00
09/03/2023 17:00;12;9;10;25;39;37;18;0,5;3,58;6,12;29,10;72,40;1008,50;0,00;0,00
09/03/2023 18:00;14;9;14;27;36;45;17;0,7;3,00;6,08;28,80;75,70;1009,60;0,00;0,00
09/03/2023 19:00;14;11;15;32;36;46;16;0,7;2,88;6,12;28,70;76,60;1008,90;0,00;0,00
09/03/2023 20:00;13;42;13;78;30;42;11;0,7;2,63;6,14;28,60;76,90;1008,80;0,00;0,00
09/03/2023 21:00;13;7;13;23;32;38;14;0,6;2,81;6,04;28,50;78,10;1007,60;0,00;0,00
09/03/2023 22:00;13;7;10;21;34;34;11;0,5;2,65;6,07;28,20;80,50;1008,40;0,00;0,00
09/03/2023 23:00;12;4;10;16;35;38;13;0,6;2,01;6,08;28,30;78,50;1011,10;0,00;0,00
10/03/2023 00:00;13;3;7;12;36;38;12;0,5;2,91;6,10;28,50;82,10;1009,00;0,00;0,00
10/03/2023 01:00;13;1;4;6;39;35;14;0,4;3,92;6,05;28,40;82,60;1008,90;0,00;0,00
10/03/2023 02:00;15;0;3;3;42;38;11;0,4;3,56;6,10;28,30;80,60;1008,20;0,00;0,00
10/03/2023 03:00;13;0;3;3;43;35;8;0,4;3,06;6,18;28,30;78,80;1007,10;0,00;0,00
10/03/2023 04:00;13;0;3;3;41;32;14;0,4;2,82;6,11;28,00;79,00;1007,20;0,00;0,00
10/03/2023 05:00;15;7;10;20;33;37;11;0,4;1,79;6,10;27,70;79,40;1007,50;0,00;0,00
10/03/2023 06:00;16;48;27;100;13;43;19;0,5;1,57;6,11;27,10;83,70;1007,60;0,00;0,00
10/03/2023 07:00;16;35;22;76;11;55;16;0,6;2,29;6,06;27,10;84,10;1008,00;0,00;0,00
10/03/2023 08:00;16;17;18;44;23;49;12;0,6;3,23;6,05;28,00;77,00;1008,00;8,00;0,00
10/03/2023 09:00;15;14;14;36;32;45;15;0,5;3,61;5,99;29,20;73,20;1009,00;81,00;0,00
10/03/2023 10:00;16;11;13;30;42;38;11;0,5;4,51;5,88;30,80;62,90;1008,60;199,00;0,00
10/03/2023 11:00;15;6;8;17;45;38;10;0,5;5,59;5,83;31,80;52,50;1008,40;334,00;0,00
10/03/2023 12:00;13;5;7;14;47;37;14;0,4;5,04;5,82;32,40;49,30;1008,50;359,00;0,00
10/03/2023 13:00;13;6;7;16;50;30;11;0,4;4,43;5,81;32,80;49,00;1006,80;332,00;0,00
10/03/2023 14:00;14;3;7;12;50;26;6;0,4;5,15;5,83;32,90;48,90;1006,50;287,00;0,00
10/03/2023 15:00;15;3;8;13;46;31;5;0,4;4,83;5,93;32,20;49,80;1005,70;194,00;0,00
10/03/2023 16:00;16;4;10;16;46;30;8;0,4;4,13;5,96;31,80;53,30;1005,60;68,00;0,00
10/03/2023 17:00;16;10;13;29;41;30;10;0,4;3,75;6,00;30,80;61,10;1005,00;0,00;0,00
10/03/2023 18:00;18;9;13;26;37;35;10;0,5;3,37;6,11;29,70;67,70;1005,20;0,00;0,00
10/03/2023 19:00;17;8;16;28;32;40;15;0,6;2,92;6,03;29,00;72,30;1005,60;0,00;0,00
10/03/2023 20:00;16;26;19;60;25;39;17;0,6;2,05;6,07;28,60;77,10;1006,20;0,00;0,00
10/03/2023 21:00;18;14;18;39;25;34;14;0,5;1,61;6,06;28,30;79,80;1008,80;0,00;0,00
10/03/2023 22:00;15;8;18;31;23;34;11;0,7;1,32;6,10;28,20;80,30;1007,90;0,00;0,00
10/03/2023 23:00;16;11;18;35;21;34;14;0,7;1,38;6,09;28,10;81,40;1008,00;0,00;0,00
11/03/2023 00:00;16;5;12;19;27;29;11;0,5;1,81;6,08;28,10;82,80;1007,80;0,00;0,00
11/03/2023 01:00;14;1;6;8;34;29;11;0,4;1,69;6,06;28,00;82,40;1006,40;0,00;0,00
11/03/2023 02:00;14;1;4;5;35;31;7;0,4;1,70;6,09;27,80;82,70;1005,30;0,00;0,00
11/03/2023 03:00;17;0;5;5;36;47;24;0,4;1,71;6,12;27,70;83,80;1004,70;0,00;0,00
11/03/2023 04:00;17;0;4;4;34;31;14;0,4;1,74;6,09;27,60;84,30;1004,90;0,00;0,00
11/03/2023 05:00;16;2;5;8;29;35;13;0,4;1,42;6,12;27,60;84,30;1005,10;0,00;0,00
11/03/2023 06:00;16;11;12;30;23;40;26;0,5;1,38;6,17;27,50;84,90;1005,50;0,00;0,00
11/03/2023 07:00;16;27;19;61;12;55;17;0,6;1,81;6,04;26,90;89,70;1006,10;1,00;5,90
11/03/2023 08:00;16;19;15;44;24;18;17;0,5;3,02;6,04;26,30;94,20;1006,30;2,00;0,00
11/03/2023 09:00;15;16;15;39;28;28;15;0,6;2,79;5,91;28,20;82,40;1007,30;72,00;0,00
11/03/2023 10:00;16;19;15;45;27;31;13;0,7;2,86;6,03;27,90;87,00;1008,00;53,00;0,30
11/03/2023 11:00;18;10;14;29;36;29;10;0,6;2,74;5,88;29,20;80,90;1006,70;155,00;0,00
11/03/2023 12:00;17;4;7;13;42;30;10;0,5;4,10;5,80;31,60;60,80;1006,30;337,00;0,00
11/03/2023 13:00;15;10;5;20;43;28;12;0,4;4,21;5,84;31,90;59,60;1005,40;283,00;0,00
11/03/2023 14:00;15;4;8;14;43;29;9;0,4;3,71;5,88;32,50;55,50;1005,40;266,00;0,00
11/03/2023 15:00;15;4;5;11;43;29;9;0,4;3,82;5,91;32,40;56,00;1005,20;192,00;0,00
11/03/2023 16:00;16;5;7;15;39;28;9;0,4;3,74;5,99;32,00;60,30;1006,00;62,00;0,00
11/03/2023 17:00;17;15;8;31;36;34;13;0,4;3,54;6,08;30,80;67,70;1006,90;0,00;0,00
11/03/2023 18:00;19;8;9;21;31;34;11;0,6;3,06;6,15;29,30;76,70;1010,50;0,00;0,00
11/03/2023 19:00;21;10;11;27;28;33;7;0,6;2,36;6,06;28,60;79,60;1011,70;0,00;0,00
11/03/2023 20:00;20;26;18;58;23;34;18;0,6;1,60;6,07;28,40;81,20;1007,40;0,00;0,00
11/03/2023 21:00;19;7;16;27;27;41;17;0,6;1,60;6,11;28,20;82,30;1007,80;0,00;0,00
11/03/2023 22:00;19;7;17;28;23;30;15;0,7;1,11;6,08;28,10;84,20;1008,50;0,00;0,00
11/03/2023 23:00;18;12;13;31;21;27;10;0,5;1,55;6,07;28,10;85,00;1008,60;0,00;0,00
12/03/2023 00:00;17;6;8;17;22;31;8;0,5;1,50;6,04;28,00;86,10;1008,30;0,00;0,00
12/03/2023 01:00;13;2;8;11;23;20;12;0,5;1,71;6,08;27,80;86,00;1007,70;0,00;0,00
12/03/2023 02:00;10;0;5;6;26;29;10;0,4;1,56;6,17;27,40;89,90;1007,30;0,00;1,10
12/03/2023 03:00;12;1;5;6;25;21;7;0,4;1,28;5,89;26,60;93,70;1007,30;0,00;0,30
12/03/2023 04:00;13;0;5;5;25;17;12;0,4;1,24;5,86;26,30;95,80;1006,70;0,00;0,00
12/03/2023 05:00;14;3;7;11;18;22;12;0,4;0,96;6,08;26,30;94,80;1006,80;0,00;0,00
12/03/2023 06:00;15;12;12;31;13;30;8;0,5;1,67;5,95;26,10;95,90;1007,20;0,00;0,30
12/03/2023 07:00;14;11;10;27;23;20;19;0,5;2,24;5,77;25,60;94,50;1007,30;0,00;0,00
12/03/2023 08:00;13;11;12;29;23;27;13;0,5;2,04;5,86;26,30;90,40;1007,70;0,00;0,00
12/03/2023 09:00;14;11;11;27;28;31;18;0,6;2,47;5,96;27,40;85,60;1008,50;4,00;0,00
12/03/2023 10:00;14;6;9;19;35;29;10;0,5;2,94;5,86;29,00;77,20;1009,20;112,00;0,00
12/03/2023 11:00;14;3;6;11;40;29;11;0,5;3,20;5,86;30,40;70,60;1008,40;175,00;0,00
12/03/2023 12:00;15;4;4;10;40;17;13;0,5;3,95;5,79;31,10;66,40;1007,50;267,00;0,00
12/03/2023 13:00;16;2;5;8;40;21;11;0,5;3,90;5,84;31,60;62,40;1006,50;282,00;0,00
12/03/2023 14:00;15;6;7;17;39;22;9;0,5;3,50;5,90;32,00;63,50;1006,10;201,00;0,00
12/03/2023 15:00;15;2;5;8;40;23;8;0,4;3,42;5,92;32,10;61,90;1006,00;145,00;0,00
12/03/2023 16:00;15;7;5;15;36;21;8;0,4;3,47;5,97;31,20;65,30;1005,80;40,00;0,00
12/03/2023 17:00;19;6;5;14;32;23;9;0,5;3,20;6,04;30,00;71,70;1004,90;0,00;0,00
12/03/2023 18:00;17;7;8;19;31;23;16;0,5;3,06;6,09;29,10;77,70;1008,30;0,00;0,00
12/03/2023 19:00;18;7;9;19;29;27;6;0,5;2,64;6,12;28,70;81,50;1008,80;0,00;0,00
12/03/2023 20:00;14;8;9;21;28;19;9;0,5;2,56;6,10;28,60;81,90;1007,60;0,00;0,00
12/03/2023 21:00;16;9;12;25;24;24;8;0,5;2,21;6,10;28,60;81,30;1008,80;0,00;0,00
12/03/2023 22:00;16;19;14;43;20;22;10;0,5;2,32;6,06;28,60;82,10;1008,90;0,00;0,00
12/03/2023 23:00;16;17;13;38;20;25;17;0,5;1,91;6,21;28,30;85,00;1008,60;0,00;0,00
13/03/2023 00:00;15;13;11;30;25;21;5;0,5;1,78;6,05;28,30;84,50;1009,10;0,00;0,00
13/03/2023 01:00;13;7;6;17;29;16;4;0,4;1,96;6,09;28,10;84,50;1007,50;0,00;0,00
13/03/2023 02:00;12;0;4;5;31;19;8;0,5;1,53;6,13;28,00;85,00;1007,50;0,00;0,00
13/03/2023 03:00;13;0;4;4;32;20;7;0,4;1,12;6,05;27,80;86,10;1006,40;0,00;0,00
13/03/2023 04:00;14;0;6;7;33;23;4;0,4;1,42;6,10;27,90;86,00;1006,10;0,00;0,00
13/03/2023 05:00;13;12;12;30;26;14;9;0,4;0,78;5,80;26,20;94,30;1005,80;0,00;2,80
13/03/2023 06:00;14;51;25;103;10;21;9;0,5;0,16;5,53;26,10;96,80;1005,80;0,00;1,10
13/03/2023 07:00;16;53;27;108;8;19;16;0,7;0,44;5,51;26,80;96,60;1006,40;0,00;0,30
13/03/2023 08:00;14;45;24;93;13;25;10;0,8;1,56;5,98;27,90;91,00;1006,70;9,00;3,40
13/03/2023 09:00;14;24;21;57;20;25;10;0,6;2,09;6,06;26,00;96,70;1006,90;6,00;10,40
13/03/2023 10:00;15;54;29;112;13;21;11;0,7;0,94;5,47;25,10;99,70;1007,80;0,00;32,20
13/03/2023 11:00;15;83;38;165;8;15;15;0,8;0,76;5,27;24,60;100,00;1007,90;36,00;9,80
13/03/2023 12:00;12;77;37;154;7;27;20;1,0;1,06;5,83;25,00;100,00;1007,70;21,00;0,00
13/03/2023 13:00;8;23;26;61;25;44;25;0,8;0,94;5,65;27,10;88,50;1006,00;170,00;0,00
13/03/2023 14:00;8;8;15;27;40;23;14;0,6;1,41;5,52;29,30;78,00;1004,60;127,00;0,00
13/03/2023 15:00;6;8;11;24;38;20;;0,5;2,43;5,65;30,30;72,10;1004,50;86,00;0,00
13/03/2023 16:00;6;16;15;38;27;32;;0,5;1,93;5,82;30,10;74,30;1004,30;0,00;0,00
13/03/2023 17:00;8;28;25;68;16;;;0,6;1,92;5,90;29,60;78,00;1004,10;0,00;0,00
13/03/2023 18:00;10;104;36;195;8;;21;0,9;1,93;5,95;28,60;84,60;1004,40;0,00;0,60
13/03/2023 19:00;8;57;29;116;7;58;15;1,0;1,28;5,98;27,70;89,30;1005,40;0,00;0,00
13/03/2023 20:00;10;65;29;129;4;49;18;1,1;1,04;5,89;27,40;91,30;1005,60;0,00;0,00
13/03/2023 21:00;10;85;30;161;3;62;20;1,1;0,94;5,96;27,30;92,70;1006,30;0,00;0,30
13/03/2023 22:00;9;72;29;140;2;39;18;1,0;0,38;6,01;26,80;96,00;1007,20;0,00;0,00
13/03/2023 23:00;9;52;23;103;2;36;13;1,0;0,13;6,24;26,60;97,40;1007,20;0,00;0,00
14/03/2023 00:00;9;69;22;129;2;51;23;1,0;0,19;5,67;26,60;97,90;1006,60;0,00;0,00
14/03/2023 01:00;11;21;18;50;3;44;12;0,7;0,21;6,00;26,40;98,30;1006,00;0,00;0,00
14/03/2023 02:00;12;5;15;23;4;30;15;0,6;0,20;5,83;26,30;98,50;1005,50;0,00;0,00
14/03/2023 03:00;11;6;14;22;4;25;11;0,6;0,09;5,99;26,30;98,50;1005,30;0,00;0,00
14/03/2023 04:00;11;6;11;20;7;25;14;0,5;0,91;6,11;26,00;98,70;1005,10;0,00;3,10
14/03/2023 05:00;12;41;26;89;17;17;9;0,5;0,96;5,78;24,60;97,80;1005,40;0,00;0,60
14/03/2023 06:00;15;177;39;310;5;31;20;0,8;0,67;5,84;24,70;97,00;1005,80;0,00;0,60
14/03/2023 07:00;16;176;48;318;4;36;19;1,1;0,62;5,77;24,70;97,70;1006,20;17,00;0,30
14/03/2023 08:00;15;102;37;193;5;30;17;1,1;0,77;5,58;25,10;97,60;1006,70;153,00;3,90
14/03/2023 09:00;14;82;40;166;5;34;21;1,0;1,01;5,85;25,40;97,40;1007,50;61,00;4,80
14/03/2023 10:00;15;77;36;154;7;32;19;0,8;0,74;5,83;25,90;97,20;1007,70;83,00;0,60
14/03/2023 11:00;15;116;39;217;;36;28;1,1;0,92;5,79;26,10;97,60;1007,60;130,00;3,90
14/03/2023 12:00;16;91;41;181;;30;17;1,1;1,25;5,53;25,80;99,00;1007,30;115,00;0,80
14/03/2023 13:00;15;54;37;119;;26;20;0,9;1,74;5,62;25,10;99,80;1009,10;5,00;21,00
14/03/2023 14:00;15;43;37;104;;16;14;0,8;0,73;5,24;24,30;100,00;1006,70;17,00;0,00
14/03/2023 15:00;13;23;30;65;;17;14;;0,52;5,57;25,00;100,00;1005,50;63,00;0,30